"Pseudo-MPEC" for ABC0149

Created 2026 Aug 25 21:35:02 UT using Find_Orb

Click here for an explanation of pseudo-MPECs

 
 Astrometry: 
     ABC0149*KB2026 08 22.07229 22 31 02.84 +04 08 59.5    ~8OH5 20.1 GXNEOCP122
     ABC0149 KB2026 08 22.07731 22 31 02.01 +04 08 58.0    ~8OH5 20.4 GXNEOCP122
     ABC0149 KB2026 08 22.08211 22 31 01.38 +04 08 57.3    ~8OH5 20.4 GXNEOCP122

Station data:
(122) Pises Observatory  (N44.039539 E3.503500)  France. 0.40-m f/4.7
   reflector.

Orbital elements:  ABC0149
   Perihelion 2027 Jan 12.930085 +/- 183 TT = 22:19:19.3 (JD 2461418.430085)
Epoch 2026 Aug 22.0 TT = JDT 2461274.5   Earth MOID: 0.2200   Me: 0.0217
M 266.650251224 +/- 90              (J2000 ecliptic)             AutoNEOCP
n   0.648577042 +/- 0.359           Peri.  182.818764 +/- 59
a   1.321787583 +/- 0.488           Node   314.112923 +/- 58
e   0.79112906 +/- 0.238            Incl.   17.218818 +/- 52
P   1.520/555.051d         H 18.53  G  0.15   U 12.1  SR
q 0.276083014 +/- 0.734    Q 2.367492152 +/- 21.9
From 3 observations 2026 Aug. 22 (14.1 min); mean residual 0".44
Residuals in arcseconds: 
260822 122  .41+  .12+    260822 122  .83-  .25-    260822 122  .43+  .13+    

Ephemerides (geocentric):
Date (UTC) HH   RA             Dec           delta  r     elong  mag " sig PA
---- --------  ------------   ------------  ------ ------ -----  --- --------
2026 08 25 22  22 21 19.976   +03 52 19.69  .95638 1.9512 165.5 20.4  24d  93
2026 08 25 23  22 21 13.445   +03 52 07.18  .95608 1.9510 165.5 20.4  24d  93
2026 08 26 00  22 21 06.910   +03 51 54.64  .95577 1.9507 165.5 20.4  24d  93
2026 08 26 01  22 21 00.370   +03 51 42.07  .95546 1.9504 165.5 20.4  24d  93
2026 08 26 02  22 20 53.827   +03 51 29.46  .95515 1.9502 165.5 20.4  24d  93
2026 08 26 03  22 20 47.279   +03 51 16.81  .95485 1.9499 165.6 20.4  24d  93
2026 08 26 04  22 20 40.727   +03 51 04.13  .95454 1.9496 165.6 20.4  24d  93
2026 08 26 05  22 20 34.170   +03 50 51.42  .95424 1.9494 165.6 20.4  24d  93
2026 08 26 06  22 20 27.610   +03 50 38.67  .95393 1.9491 165.6 20.4  24d  93
2026 08 26 07  22 20 21.045   +03 50 25.89  .95363 1.9488 165.6 20.4  24d  93
2026 08 26 08  22 20 14.476   +03 50 13.07  .95332 1.9486 165.7 20.4  24d  93
2026 08 26 09  22 20 07.903   +03 50 00.22  .95302 1.9483 165.7 20.4  24d  93
2026 08 26 10  22 20 01.326   +03 49 47.34  .95272 1.9480 165.7 20.4  24d  93
2026 08 26 11  22 19 54.745   +03 49 34.42  .95242 1.9478 165.7 20.4  24d  93
2026 08 26 12  22 19 48.159   +03 49 21.47  .95212 1.9475 165.7 20.4  24d  93
2026 08 26 13  22 19 41.570   +03 49 08.48  .95182 1.9472 165.8 20.4  24d  93
2026 08 26 14  22 19 34.976   +03 48 55.46  .95152 1.9470 165.8 20.4  24d  93
2026 08 26 15  22 19 28.379   +03 48 42.40  .95122 1.9467 165.8 20.4  24d  93
2026 08 26 16  22 19 21.777   +03 48 29.31  .95092 1.9464 165.8 20.4  24d  93
2026 08 26 17  22 19 15.171   +03 48 16.19  .95062 1.9462 165.8 20.4  24d  93
2026 08 26 18  22 19 08.561   +03 48 03.03  .95032 1.9459 165.8 20.4  24d  94
2026 08 26 19  22 19 01.948   +03 47 49.84  .95002 1.9456 165.9 20.4  25d  94
2026 08 26 20  22 18 55.330   +03 47 36.61  .94973 1.9453 165.9 20.4  25d  94
2026 08 26 21  22 18 48.708   +03 47 23.35  .94943 1.9451 165.9 20.4  26d  94
2026 08 26 22  22 18 42.082   +03 47 10.06  .94914 1.9448 165.9 20.4  26d  94
2026 08 26 23  22 18 35.452   +03 46 56.73  .94884 1.9445 165.9 20.4  26d  94
2026 08 27 00  22 18 28.818   +03 46 43.37  .94855 1.9443 165.9 20.4  27d  94
2026 08 27 01  22 18 22.180   +03 46 29.97  .94825 1.9440 166.0 20.4  27d  94
2026 08 27 02  22 18 15.538   +03 46 16.54  .94796 1.9437 166.0 20.4  27d  94
2026 08 27 03  22 18 08.892   +03 46 03.07  .94767 1.9435 166.0 20.4  27d  94
2026 08 27 04  22 18 02.243   +03 45 49.57  .94738 1.9432 166.0 20.4  28d  94
2026 08 27 05  22 17 55.589   +03 45 36.04  .94709 1.9429 166.0 20.4  28d  93
2026 08 27 06  22 17 48.931   +03 45 22.47  .94679 1.9427 166.0 20.4  28d  93
2026 08 27 07  22 17 42.270   +03 45 08.87  .94650 1.9424 166.0 20.4  28d  93
2026 08 27 08  22 17 35.605   +03 44 55.24  .94622 1.9421 166.1 20.4  28d  93
2026 08 27 09  22 17 28.935   +03 44 41.57  .94593 1.9418 166.1 20.4  28d  93
2026 08 27 10  22 17 22.262   +03 44 27.87  .94564 1.9416 166.1 20.4  28d  93
2026 08 27 11  22 17 15.585   +03 44 14.13  .94535 1.9413 166.1 20.4  28d  93
2026 08 27 12  22 17 08.904   +03 44 00.36  .94506 1.9410 166.1 20.4  28d  93
2026 08 27 13  22 17 02.220   +03 43 46.55  .94478 1.9408 166.1 20.4  28d  93
2026 08 27 14  22 16 55.531   +03 43 32.71  .94449 1.9405 166.1 20.4  28d  93
2026 08 27 15  22 16 48.839   +03 43 18.84  .94420 1.9402 166.1 20.4  28d  93
2026 08 27 16  22 16 42.143   +03 43 04.94  .94392 1.9399 166.1 20.4  29d  93
2026 08 27 17  22 16 35.443   +03 42 51.00  .94363 1.9397 166.2 20.4  29d  93
2026 08 27 18  22 16 28.739   +03 42 37.02  .94335 1.9394 166.2 20.4  29d  93
2026 08 27 19  22 16 22.032   +03 42 23.01  .94307 1.9391 166.2 20.4  29d  93
2026 08 27 20  22 16 15.321   +03 42 08.97  .94278 1.9389 166.2 20.4  29d  93
2026 08 27 21  22 16 08.606   +03 41 54.90  .94250 1.9386 166.2 20.4  29d  93